GW3596 Weather Reports


time (UTC)temp
F
wind
direction
speed
knots
gust
knots
rain 1hr
in
rain 24hr
in
rain mn
in
humidity
%
barometer
mb
20260504035103 48 329 0.0 0.0 0.00 0.00 0.00 71 1019.3
20260504034601 48 329 0.0 0.0 0.00 0.00 0.00 69 1019.0
20260504034057 48 328 0.0 0.0 0.00 0.00 0.00 69 1019.4
20260504033555 49 328 0.0 0.0 0.00 0.00 0.00 64 1019.1
20260504033052 48 327 0.0 0.0 0.00 0.00 0.00 64 1019.0
20260504032549 49 328 0.0 0.0 0.00 0.00 0.00 64 1019.1
20260504032046 49 328 0.0 0.0 0.00 0.00 0.00 63 1019.3
20260504031543 49 328 0.0 0.0 0.00 0.00 0.00 63 1019.4
20260504031039 49 328 0.0 0.0 0.00 0.00 0.00 65 1019.4
20260504030537 50 328 0.0 0.0 0.00 0.00 0.00 61 1019.2
20260504030032 50 328 0.0 0.0 0.00 0.00 0.00 60 1019.0
20260504025530 50 328 0.0 0.0 0.00 0.00 0.00 62 1019.3
20260504025026 50 328 0.0 0.0 0.00 0.00 0.00 59 1019.2
20260504024524 51 328 0.0 0.0 0.00 0.00 0.00 61 1019.2
20260504024020 51 328 0.0 0.0 0.00 0.00 0.00 56 1019.2
20260504023517 51 331 0.0 0.0 0.00 0.00 0.00 56 1019.4
20260504023013 52 329 0.0 0.0 0.00 0.00 0.00 57 1019.4
20260504022509 53 337 0.0 0.0 0.00 0.00 0.00 59 1019.1
20260504022006 53 323 0.0 0.0 0.00 0.00 0.00 56 1019.2
20260504021504 54 323 0.0 0.0 0.00 0.00 0.00 53 1019.1
20260504021000 54 323 0.0 0.0 0.00 0.00 0.00 50 1019.0
20260504020456 54 323 0.0 0.0 0.00 0.00 0.00 50 1019.1
20260504015953 54 322 0.0 0.0 0.00 0.00 0.00 49 1018.8
20260504015449 54 318 0.0 0.0 0.00 0.00 0.00 49 1018.9
20260504014945 54 318 0.0 0.0 0.00 0.00 0.00 50 1019.0
20260504014442 54 318 0.0 0.0 0.00 0.00 0.00 49 1018.7
20260504013938 54 318 0.0 0.0 0.00 0.00 0.00 49 1019.0
20260504013437 54 318 0.0 0.0 0.00 0.00 0.00 49 1018.8
20260504012933 54 318 0.0 0.0 0.00 0.00 0.00 48 1018.7
20260504012431 54 320 0.0 0.0 0.00 0.00 0.00 48 1018.8
20260504011928 54 319 0.0 0.0 0.00 0.00 0.00 48 1018.9
20260504011425 55 319 0.0 0.0 0.00 0.00 0.00 50 1018.4
20260504010921 55 325 0.0 0.0 0.00 0.00 0.00 47 1018.7
20260504010417 55 325 0.0 0.0 0.00 0.00 0.00 47 1018.6
20260504005913 55 326 0.0 0.0 0.00 0.00 0.00 47 1018.4
20260504005410 55 318 0.0 0.0 0.00 0.00 0.00 47 1018.5
20260504004908 55 318 0.0 0.0 0.00 0.00 0.00 47 1018.2
20260504004405 55 315 0.0 0.0 0.00 0.00 0.00 46 1018.2
20260504003902 55 327 0.0 0.0 0.00 0.00 0.00 46 1018.4
20260504003358 55 326 0.0 0.0 0.00 0.00 0.00 46 1018.4
20260504002855 55 328 0.0 0.0 0.00 0.00 0.00 46 1018.2
20260504002352 55 328 0.0 0.0 0.00 0.00 0.00 46 1018.1
20260504001849 56 329 0.0 0.0 0.00 0.00 0.00 45 1018.2
20260504001347 55 329 0.0 0.0 0.00 0.00 0.00 44 1018.0
20260504000843 55 330 0.0 0.0 0.00 0.00 0.00 45 1018.1
20260504000341 55 330 0.0 0.0 0.00 0.00 0.00 50 1017.9
20260503235838 55 330 0.0 0.0 0.00 0.00 0.00 51 1018.4
20260503235336 56 330 0.0 0.0 0.00 0.00 0.00 55 1018.0
20260503234833 56 330 0.0 0.0 0.00 0.00 0.00 50 1018.1
20260503234330 57 330 0.0 0.0 0.00 0.00 0.00 46 1018.2
20260503233828 57 330 0.0 0.0 0.00 0.00 0.00 53 1018.0
20260503233324 57 330 0.0 0.0 0.00 0.00 0.00 48 1018.0
20260503232820 58 326 0.0 0.0 0.00 0.00 0.00 46 1017.9
20260503232318 58 318 0.0 0.0 0.00 0.00 0.00 44 1018.0
20260503231816 58 319 0.0 0.0 0.00 0.00 0.00 45 1018.0
20260503231313 58 326 0.0 0.0 0.00 0.00 0.00 47 1018.0
20260503230808 58 326 0.0 0.0 0.00 0.00 0.00 50 1018.2
20260503230306 59 326 0.0 0.0 0.00 0.00 0.00 48 1018.0
20260503225803 59 328 0.0 0.0 0.00 0.00 0.00 46 1018.0
20260503225258 59 328 0.0 0.0 0.00 0.00 0.00 46 1018.2
20260503224755 60 325 0.0 0.0 0.00 0.00 0.00 46 1017.9
20260503224253 60 329 0.0 0.0 0.00 0.00 0.00 42 1018.2
20260503223750 60 335 0.0 0.0 0.00 0.00 0.00 43 1018.1
20260503223248 60 317 0.0 0.0 0.00 0.00 0.00 50 1018.2
20260503222744 60 319 0.0 0.0 0.00 0.00 0.00 50 1018.1
20260503222242 61 325 0.0 0.0 0.00 0.00 0.00 45 1018.0
20260503221740 61 325 0.0 0.0 0.00 0.00 0.00 49 1018.1
20260503221237 61 327 0.0 0.9 0.00 0.00 0.00 41 1018.1
20260503220733 61 324 0.0 0.0 0.00 0.00 0.00 47 1018.1
20260503220231 61 327 0.0 0.0 0.00 0.00 0.00 43 1018.2
20260503215727 61 4 0.9 1.7 0.00 0.00 0.00 41 1018.4
20260503215225 61 329 0.0 0.0 0.00 0.00 0.00 40 1018.4
20260503214723 62 328 0.0 0.9 0.00 0.00 0.00 39 1018.1
20260503214219 62 332 0.0 0.9 0.00 0.00 0.00 39 1018.4
20260503213717 62 335 0.9 0.9 0.00 0.00 0.00 41 1018.1
20260503213214 62 329 0.0 0.0 0.00 0.00 0.00 41 1018.1
20260503212711 62 330 0.0 0.9 0.00 0.00 0.00 40 1018.5
20260503212209 62 326 0.0 0.0 0.00 0.00 0.00 41 1018.2
20260503211706 63 336 0.0 0.9 0.00 0.00 0.00 40 1018.5
20260503211202 63 336 0.9 0.9 0.00 0.00 0.00 41 1018.5
20260503210658 62 330 0.0 0.0 0.00 0.00 0.00 42 1018.4
20260503210155 62 326 0.0 0.0 0.00 0.00 0.00 45 1018.2
20260503205650 63 323 0.0 0.9 0.00 0.00 0.00 39 1018.4
20260503205147 63 324 0.0 0.0 0.00 0.00 0.00 35 1018.6
20260503204643 63 342 0.9 0.9 0.00 0.00 0.00 38 1018.7
20260503204141 63 330 0.0 0.0 0.00 0.00 0.00 37 1018.7
20260503203638 63 329 0.0 0.9 0.00 0.00 0.00 36 1018.8
20260503203136 63 325 0.0 0.0 0.00 0.00 0.00 34 1018.9
20260503202633 63 330 0.0 0.0 0.00 0.00 0.00 36 1018.9
20260503202131 63 317 0.0 0.9 0.00 0.00 0.00 35 1018.8
20260503201629 63 319 0.0 0.0 0.00 0.00 0.00 36 1019.1
20260503201126 63 317 0.0 0.9 0.00 0.00 0.00 34 1019.0
20260503200621 63 329 0.0 0.0 0.00 0.00 0.00 36 1019.0
20260503200118 63 331 0.9 0.9 0.00 0.00 0.00 36 1019.1
20260503195615 63 316 0.0 0.0 0.00 0.00 0.00 33 1019.5
20260503195112 63 327 0.0 0.0 0.00 0.00 0.00 37 1019.4
20260503194609 63 334 0.0 0.0 0.00 0.00 0.00 34 1019.3
20260503194103 63 320 0.0 0.0 0.00 0.00 0.00 33 1019.5
20260503193600 62 17 0.9 1.7 0.00 0.00 0.00 37 1019.6
20260503193056 64 326 1.7 1.7 0.00 0.00 0.00 33 1019.9
20260503192552 63 319 0.0 0.0 0.00 0.00 0.00 32 1019.9
20260503192048 63 322 0.0 0.0 0.00 0.00 0.00 35 1019.6
20260503191540 63 315 0.0 0.9 0.00 0.00 0.00 36 1019.9
20260503191036 63 324 0.0 0.0 0.00 0.00 0.00 37 1019.7
20260503190533 63 340 0.9 1.7 0.00 0.00 0.00 37 1020.0
20260503190030 63 310 0.9 0.9 0.00 0.00 0.00 36 1020.1
20260503185526 63 327 0.0 0.9 0.00 0.00 0.00 37 1020.1
20260503185021 63 332 0.0 0.9 0.00 0.00 0.00 35 1020.3
20260503184518 63 324 0.0 0.0 0.00 0.00 0.00 33 1020.1
20260503184014 62 327 0.0 0.0 0.00 0.00 0.00 36 1020.1
20260503183511 62 317 0.9 0.9 0.00 0.00 0.00 36 1020.2
20260503183008 62 328 0.0 0.0 0.00 0.00 0.00 39 1020.3
20260503182507 63 329 0.9 1.7 0.00 0.00 0.00 41 1020.3
20260503182005 62 320 0.0 0.0 0.00 0.00 0.00 38 1020.4
20260503181501 61 335 0.0 0.9 0.00 0.00 0.00 35 1020.5
20260503180956 61 324 0.0 0.9 0.00 0.00 0.00 36 1020.6
20260503180455 61 316 0.9 0.9 0.00 0.00 0.00 34 1020.4
20260503175951 62 320 0.0 0.0 0.00 0.00 0.00 41 1020.5
20260503175449 61 329 0.0 0.9 0.00 0.00 0.00 38 1020.4
20260503174945 60 323 0.0 0.9 0.00 0.00 0.00 36 1020.5
20260503174443 61 316 0.9 0.9 0.00 0.00 0.00 34 1020.5
20260503173938 62 320 0.0 0.0 0.00 0.00 0.00 37 1020.6
20260503173434 60 322 0.0 0.0 0.00 0.00 0.00 41 1020.8
20260503172931 60 331 0.9 0.9 0.00 0.00 0.00 41 1020.6
20260503172429 60 325 0.0 0.9 0.00 0.00 0.00 41 1020.7
20260503171925 62 321 0.0 0.9 0.00 0.00 0.00 46 1020.9
20260503171422 60 317 0.0 0.9 0.00 0.00 0.00 41 1020.7
20260503170919 62 332 0.9 0.9 0.00 0.00 0.00 42 1020.9
20260503170415 62 14 1.7 2.6 0.00 0.00 0.00 40 1021.2
20260503150808 54 331 0.0 0.0 0.00 0.00 0.00 60 1021.9
20260503150303 53 321 0.0 0.0 0.00 0.00 0.00 59 1021.6
20260503140228 49 331 0.9 0.9 0.00 0.00 0.00 71 1021.6
20260503131158 43 331 0.9 0.9 0.00 0.00 0.00 84 1021.6
20260503130655 43 342 0.9 0.9 0.00 0.00 0.00 85 1021.5
20260503130152 42 334 0.9 0.9 0.00 0.00 0.00 86 1021.7
20260503120118 40 330 0.0 0.0 0.00 0.00 0.00 91 1021.1
20260503110545 39 321 0.0 0.0 0.00 0.00 0.00 91 1020.1
20260503090432 41 322 0.0 0.0 0.00 0.00 0.00 87 1019.1
20260503081359 41 322 0.0 0.0 0.00 0.00 0.00 85 1018.8
20260503080855 41 322 0.0 0.0 0.00 0.00 0.00 84 1018.7
20260503080352 41 322 0.0 0.0 0.00 0.00 0.00 84 1018.6
20260503072829 42 322 0.0 0.0 0.00 0.00 0.00 82 1018.2
20260503072326 42 322 0.0 0.0 0.00 0.00 0.00 83 1018.5
20260503071822 42 322 0.0 0.0 0.00 0.00 0.00 81 1018.4
20260503071320 42 322 0.0 0.0 0.00 0.00 0.00 81 1018.4
20260503070815 42 322 0.0 0.0 0.00 0.00 0.00 83 1018.2
20260503070313 42 322 0.0 0.0 0.00 0.00 0.00 81 1018.1
20260503060227 44 323 0.0 0.0 0.00 0.00 0.00 76 1018.0
20260503054714 44 323 0.0 0.0 0.00 0.00 0.00 74 1018.1
20260503054211 44 323 0.0 0.0 0.00 0.00 0.00 80 1017.9
20260503053709 44 323 0.0 0.0 0.00 0.00 0.00 79 1018.0
20260503053207 44 322 0.0 0.0 0.00 0.00 0.00 78 1018.1
20260503052703 44 322 0.0 0.0 0.00 0.00 0.00 78 1018.0
20260503052200 44 322 0.0 0.0 0.00 0.00 0.00 78 1018.1
20260503051655 44 322 0.0 0.0 0.00 0.00 0.00 79 1018.1
20260503051153 44 322 0.0 0.0 0.00 0.00 0.00 78 1018.0
20260503050649 44 322 0.0 0.0 0.00 0.00 0.00 78 1018.2
20260503050146 44 322 0.0 0.0 0.00 0.00 0.00 78 1018.2
20260503045644 45 322 0.0 0.0 0.00 0.00 0.00 78 1018.2
20260503045141 45 322 0.0 0.0 0.00 0.00 0.00 78 1018.2
20260503044637 45 322 0.0 0.0 0.00 0.00 0.00 77 1018.4
20260503044135 45 322 0.0 0.0 0.00 0.00 0.00 75 1018.1
20260503043631 45 322 0.0 0.0 0.00 0.00 0.00 76 1018.4
20260503043128 45 322 0.0 0.0 0.00 0.00 0.00 75 1018.2
20260503042625 45 322 0.0 0.0 0.00 0.00 0.00 73 1018.2
20260503042121 46 322 0.0 0.0 0.00 0.00 0.00 72 1018.2
20260503041617 46 322 0.0 0.0 0.00 0.00 0.00 70 1018.1
20260503041110 46 322 0.0 0.0 0.00 0.00 0.00 70 1018.0
20260503040607 46 322 0.0 0.0 0.00 0.00 0.00 69 1018.2
20260503040104 46 322 0.0 0.0 0.00 0.00 0.00 72 1018.1
20260503035600 46 328 0.0 0.0 0.00 0.00 0.00 73 1017.7